Location: Gwatt
(46.7204°N, 7.6223°E)
Time: 14:11:30
(UTC+00:00)

deb Explorer IX - Pass Details

Date: 23 January 2021
Orbit: 537 x 1102 km, 38.8° (Epoch: 01 March)

Event Time Altitude Azimuth Distance (km) Brightness Sun altitude
Rises 16:44:30 0° 215° (SW) 3,727 ? -4.7°
Reaches altitude 10° 16:48:01 10° 200° (SSW) 2,686 ? -5.2°
Maximum altitude 16:52:29 20° 156° (SSE) 1,933 ? -5.9°
Drops below altitude 10° 16:56:34 10° 111° (ESE) 2,411 ? -6.6°
Enters shadow 16:58:24 - 99° (E) 2,897 ? -6.9°
Sets 16:59:30 0° 94° (E) 3,234 - -7.0°
